START_TIME,STEP,MOV.,H8,t_acc.,H43,t_acc.,M25,t_acc.,H9,t_acc.
1989-08-26T18:00:30.130 ,0,0,0.,12.0,0.,12.0,0.,12.0,0.,12.0
1989-08-26T18:00:42.130 ,0,0,0.,12.0,0.,12.0,0.,12.0,0.,12.0
1989-08-26T18:00:54.130 ,0,0,0.,12.0,0.,12.0,0.,12.0,0.,12.0
1989-08-26T18:01:06.130 ,0,0,0.,12.0,0.,12.0,0.,12.0,0.,12.0
1989-08-26T18:01:18.130 ,0,0,0.,12.0,0.,12.0,0.,12.0,0.,12.0
1989-08-26T18:01:30.130 ,0,0,0.,12.0,0.,12.0,0.,12.0,0.,12.0
1989-08-26T18:01:42.130 ,1,0,0.,12.0,0.,12.0,0.,12.0,0.,12.0
1989-08-26T18:01:54.130 ,1,0,0.,12.0,0.,12.0,0.,12.0,0.,12.0
1989-08-26T18:02:06.130 ,1,0,0.,12.0,0.,12.0,0.,12.0,0.,12.0
1989-08-26T18:02:18.130 ,1,0,0.,12.0,0.,12.0,0.,12.0,0.,12.0
1989-08-26T18:02:30.130 ,2,0,0.,12.0,0.,12.0,0.,12.0,0.,12.0
1989-08-26T18:02:42.130 ,2,0,0.,12.0,0.,12.0,0.,12.0,0.,12.0
1989-08-26T18:02:54.130 ,2,0,0.,12.0,0.,12.0,0.,12.0,0.,12.0
1989-08-26T18:03:06.130 ,2,0,0.,12.0,0.,12.0,0.,12.0,0.,12.0
1989-08-26T18:03:18.130 ,3,0,0.,12.0,0.,12.0,0.,12.0,0.,12.0
1989-08-26T18:03:30.130 ,3,0,0.,12.0,0.,12.0,0.,12.0,0.,12.0
1989-08-26T18:03:42.130 ,3,0,0.,12.0,0.,12.0,0.,12.0,0.,12.0
1989-08-26T18:03:54.130 ,3,0,0.,12.0,0.,12.0,0.,12.0,0.,12.0
1989-08-26T18:04:06.130 ,4,0,0.,12.0,0.,12.0,0.,12.0,0.,12.0
1989-08-26T18:04:18.130 ,4,0,0.,12.0,0.,12.0,0.,12.0,0.,12.0
1989-08-26T18:04:30.130 ,4,0,0.,12.0,0.,12.0,0.,12.0,0.,12.0
1989-08-26T18:04:42.130 ,4,0,0.,12.0,0.,12.0,0.,12.0,0.,12.0
1989-08-26T18:04:54.130 ,5,0,0.,12.0,0.,12.0,0.,12.0,0.,12.0
1989-08-26T18:05:06.130 ,5,0,0.,12.0,0.,12.0,0.,12.0,0.,12.0
1989-08-26T18:05:18.130 ,5,0,0.,12.0,0.,12.0,0.,12.0,0.,12.0
1989-08-26T18:05:30.130 ,5,0,0.,12.0,0.,12.0,0.,12.0,0.,12.0
1989-08-26T18:05:42.130 ,6,0,0.,12.0,0.,12.0,0.,12.0,0.,12.0
1989-08-26T18:05:54.130 ,6,0,0.,12.0,0.,12.0,0.,12.0,0.,12.0
1989-08-26T18:06:06.130 ,6,0,0.,12.0,0.,12.0,0.,12.0,0.,12.0
1989-08-26T18:06:18.130 ,6,0,0.,12.0,0.,12.0,0.,12.0,0.,12.0
1989-08-26T18:06:30.130 ,7,0,0.,12.0,0.,12.0,0.,12.0,0.,12.0
1989-08-26T18:06:42.130 ,7,0,0.,12.0,0.,12.0,0.,12.0,0.,12.0
1989-08-26T18:06:54.130 ,7,0,0.,12.0,0.,12.0,0.,12.0,0.,12.0
1989-08-26T18:07:06.130 ,7,0,0.,12.0,0.,12.0,0.,12.0,0.,12.0
1989-08-26T18:07:18.130 ,7,0,0.,12.0,0.,12.0,0.,12.0,0.,12.0
1989-08-26T18:07:30.130 ,7,0,0.,12.0,0.,12.0,0.,12.0,0.,12.0
1989-08-26T18:07:42.130 ,7,0,0.,12.0,0.,12.0,0.,12.0,0.,12.0
1989-08-26T18:07:54.130 ,7,0,0.,12.0,0.,12.0,0.,12.0,0.,12.0
1989-08-26T18:08:06.130 ,6,0,0.,12.0,0.,12.0,0.,12.0,0.,12.0
1989-08-26T18:08:18.130 ,6,0,0.,12.0,0.,12.0,0.,12.0,0.,12.0
1989-08-26T18:08:30.130 ,6,0,0.,12.0,0.,12.0,0.,12.0,0.,12.0
1989-08-26T18:08:42.130 ,6,0,0.,12.0,0.,12.0,0.,12.0,0.,12.0
1989-08-26T18:08:54.130 ,5,0,0.,12.0,0.,12.0,0.,12.0,0.,12.0
1989-08-26T18:09:06.130 ,5,0,0.,12.0,0.,12.0,0.,12.0,0.,12.0
1989-08-26T18:09:18.130 ,5,0,0.,12.0,0.,12.0,0.,12.0,0.,12.0
1989-08-26T18:09:30.130 ,5,0,0.,12.0,0.,12.0,0.,12.0,0.,12.0
1989-08-26T18:09:42.130 ,4,0,0.,12.0,0.,12.0,0.,12.0,0.,12.0
1989-08-26T18:09:54.130 ,4,0,0.,12.0,0.,12.0,0.,12.0,0.,12.0
1989-08-26T18:10:06.130 ,4,0,0.,12.0,0.,12.0,0.,12.0,0.,12.0
1989-08-26T18:10:18.130 ,4,0,0.,12.0,0.,12.0,0.,12.0,0.,12.0
1989-08-26T18:10:30.130 ,3,0,0.,12.0,0.,12.0,0.,12.0,0.,12.0
1989-08-26T18:10:42.130 ,3,0,0.,12.0,0.,12.0,0.,12.0,0.,12.0
1989-08-26T18:10:54.130 ,3,0,0.,12.0,0.,12.0,0.,12.0,0.,12.0
1989-08-26T18:11:06.130 ,3,0,0.,12.0,0.,12.0,0.,12.0,0.,12.0
1989-08-26T18:11:18.130 ,2,0,0.,12.0,0.,12.0,0.,12.0,0.,12.0
1989-08-26T18:11:30.130 ,2,0,0.,12.0,0.,12.0,0.,12.0,0.,12.0
1989-08-26T18:11:42.130 ,2,0,0.,12.0,0.,12.0,0.,12.0,0.,12.0
1989-08-26T18:11:54.130 ,2,0,0.,12.0,0.,12.0,0.,12.0,0.,12.0
1989-08-26T18:12:06.130 ,1,0,0.,12.0,0.,12.0,0.,12.0,0.,12.0
1989-08-26T18:12:18.130 ,1,0,0.,12.0,0.,12.0,0.,12.0,0.,12.0
1989-08-26T18:12:30.130 ,1,0,0.,12.0,0.,12.0,0.,12.0,0.,12.0
1989-08-26T18:12:42.130 ,1,0,0.,12.0,0.,12.0,0.,12.0,0.,12.0
1989-08-26T18:12:54.130 ,0,0,0.,12.0,0.,12.0,0.,12.0,0.,12.0
1989-08-26T18:13:06.130 ,0,0,0.,12.0,0.,12.0,0.,12.0,0.,12.0
1989-08-26T18:13:18.130 ,0,0,0.,12.0,0.,12.0,0.,12.0,0.,12.0
1989-08-26T18:13:30.130 ,0,0,0.,12.0,0.,12.0,0.,12.0,0.,12.0
1989-08-26T18:13:42.130 ,0,0,0.,12.0,0.,12.0,0.,12.0,0.,12.0
1989-08-26T18:13:54.130 ,0,0,0.,12.0,0.,12.0,0.,12.0,0.,12.0
1989-08-26T18:14:06.130 ,0,0,0.,12.0,0.,12.0,0.,12.0,0.,12.0
1989-08-26T18:14:18.130 ,0,0,0.,12.0,0.,12.0,0.,12.0,0.,12.0
1989-08-26T18:14:30.130 ,1,0,0.,12.0,0.,12.0,0.,12.0,0.,12.0
1989-08-26T18:14:42.130 ,1,0,0.,12.0,0.,12.0,0.,12.0,0.,12.0
1989-08-26T18:14:54.130 ,1,0,0.,12.0,0.,12.0,0.,12.0,0.,12.0
1989-08-26T18:15:06.130 ,1,0,0.,12.0,0.,12.0,0.,12.0,0.,12.0
1989-08-26T18:15:18.130 ,2,0,0.,12.0,0.,12.0,0.,12.0,0.,12.0
1989-08-26T18:15:30.130 ,2,0,0.,12.0,0.,12.0,0.,12.0,0.,12.0
1989-08-26T18:15:42.130 ,2,0,0.,12.0,0.,12.0,0.,12.0,0.,12.0
1989-08-26T18:15:54.130 ,2,0,0.,12.0,0.,12.0,0.,12.0,0.,12.0
1989-08-26T18:16:06.130 ,3,0,0.,12.0,0.,12.0,0.,12.0,0.,12.0
1989-08-26T18:16:18.130 ,3,0,0.,12.0,0.,12.0,0.,12.0,0.,12.0
1989-08-26T18:16:30.130 ,3,0,0.,12.0,0.,12.0,0.,12.0,0.,12.0
1989-08-26T18:16:42.130 ,3,0,0.,12.0,0.,12.0,0.,12.0,0.,12.0
1989-08-26T18:16:54.130 ,4,0,0.,12.0,0.,12.0,0.,12.0,0.,12.0
1989-08-26T18:17:06.130 ,4,0,0.,12.0,0.,12.0,0.,12.0,0.,12.0
1989-08-26T18:17:18.130 ,4,0,0.,12.0,0.,12.0,0.,12.0,0.,12.0
1989-08-26T18:17:30.130 ,4,0,0.,12.0,0.,12.0,0.,12.0,0.,12.0
1989-08-26T18:17:42.130 ,5,0,0.,12.0,0.,12.0,0.,12.0,0.,12.0
1989-08-26T18:17:54.130 ,5,0,0.,12.0,0.,12.0,0.,12.0,0.,12.0
1989-08-26T18:18:06.130 ,5,0,0.,12.0,0.,12.0,0.,12.0,0.,12.0
1989-08-26T18:18:18.130 ,5,0,0.,12.0,0.,12.0,0.,12.0,0.,12.0
1989-08-26T18:18:30.130 ,6,0,0.,12.0,0.,12.0,0.,12.0,0.,12.0
1989-08-26T18:18:42.130 ,6,0,0.,12.0,0.,12.0,0.,12.0,0.,12.0
1989-08-26T18:18:54.130 ,6,0,0.,12.0,0.,12.0,0.,12.0,0.,12.0
1989-08-26T18:19:06.130 ,6,0,0.,12.0,0.,12.0,0.,12.0,0.,12.0
1989-08-26T18:19:18.130 ,7,0,0.,12.0,0.,12.0,0.,12.0,0.,12.0
1989-08-26T18:19:30.130 ,7,0,0.,12.0,0.,12.0,0.,12.0,0.,12.0
1989-08-26T18:19:42.130 ,7,0,0.,12.0,0.,12.0,0.,12.0,0.,12.0
1989-08-26T18:19:54.130 ,7,0,0.,12.0,0.,12.0,0.,12.0,0.,12.0
1989-08-26T18:20:06.130 ,7,0,0.,12.0,0.,12.0,0.,12.0,0.,12.0
1989-08-26T18:20:18.130 ,7,0,0.,12.0,0.,12.0,0.,12.0,0.,12.0
1989-08-26T18:20:30.130 ,7,0,0.,12.0,0.,12.0,0.,12.0,0.,12.0
1989-08-26T18:20:42.130 ,7,0,0.,12.0,0.,12.0,0.,12.0,0.,12.0
1989-08-26T18:20:54.130 ,6,0,0.,12.0,0.,12.0,0.,12.0,0.,12.0
1989-08-26T18:21:06.130 ,6,0,0.,12.0,0.,12.0,0.,12.0,0.,12.0
1989-08-26T18:21:18.130 ,6,0,0.,12.0,0.,12.0,0.,12.0,0.,12.0
1989-08-26T18:21:30.130 ,6,0,0.,12.0,0.,12.0,0.,12.0,0.,12.0
1989-08-26T18:21:42.130 ,5,0,0.,12.0,0.,12.0,0.,12.0,0.,12.0
1989-08-26T18:21:54.130 ,5,0,0.,12.0,0.,12.0,0.,12.0,0.,12.0
1989-08-26T18:22:06.130 ,5,0,0.,12.0,0.,12.0,0.,12.0,0.,12.0
1989-08-26T18:22:18.130 ,5,0,0.,12.0,0.,12.0,0.,12.0,0.,12.0
1989-08-26T18:22:30.130 ,4,0,0.,12.0,0.,12.0,0.,12.0,0.,12.0
1989-08-26T18:22:42.130 ,4,0,0.,12.0,0.,12.0,0.,12.0,0.,12.0
1989-08-26T18:22:54.130 ,4,0,0.,12.0,0.,12.0,0.,12.0,0.,12.0
1989-08-26T18:23:06.130 ,4,0,0.,12.0,0.,12.0,0.,12.0,0.,12.0
1989-08-26T18:23:18.130 ,3,0,0.,12.0,0.,12.0,0.,12.0,0.,12.0
1989-08-26T18:23:30.130 ,3,0,0.,12.0,0.,12.0,0.,12.0,0.,12.0
1989-08-26T18:23:42.130 ,0,0,0.,12.0,0.,12.0,0.,12.0,0.,12.0
1989-08-26T18:23:54.130 ,0,0,0.,12.0,0.,12.0,0.,12.0,0.,12.0
1989-08-26T18:24:53.530 ,0,0,,0,,0,,0,,0
1989-08-26T18:25:05.530 ,0,0,,0,,0,,0,,0
1989-08-26T18:24:54.130 ,0,0,0.,12.0,0.,12.0,0.,12.0,0.,12.0
1989-08-26T18:25:06.130 ,0,0,0.,12.0,0.,12.0,0.,12.0,0.,12.0
1989-08-26T18:25:18.130 ,0,0,0.,12.0,0.,12.0,0.,12.0,0.,12.0
1989-08-26T18:25:30.130 ,0,0,0.,12.0,0.,12.0,0.,12.0,0.,12.0
1989-08-26T18:25:42.130 ,0,0,0.,12.0,0.,12.0,0.,12.0,0.,12.0
1989-08-26T18:25:54.130 ,0,0,0.,12.0,0.,12.0,0.,12.0,0.,12.0
1989-08-26T18:26:06.130 ,0,0,0.,12.0,0.,12.0,0.,12.0,0.,12.0
1989-08-26T18:26:18.130 ,0,0,0.,12.0,0.,12.0,0.,12.0,0.,12.0
1989-08-26T18:26:30.130 ,0,0,0.,12.0,0.,12.0,0.,12.0,0.,12.0
1989-08-26T18:26:42.130 ,0,0,0.,12.0,0.,12.0,0.,12.0,0.,12.0
1989-08-26T18:26:54.130 ,0,0,0.,12.0,0.,12.0,0.,12.0,0.,12.0
1989-08-26T18:27:06.130 ,0,0,0.,12.0,0.,12.0,0.,12.0,0.,12.0
1989-08-26T18:27:18.130 ,1,0,0.,12.0,0.,12.0,0.,12.0,0.,12.0
1989-08-26T18:27:30.130 ,1,0,0.,12.0,0.,12.0,0.,12.0,0.,12.0
1989-08-26T18:27:42.130 ,1,0,0.,12.0,0.,12.0,0.,12.0,0.,12.0
1989-08-26T18:27:54.130 ,1,0,0.,12.0,0.,12.0,0.,12.0,0.,12.0
1989-08-26T18:28:06.130 ,2,0,0.,12.0,0.,12.0,0.,12.0,0.,12.0
1989-08-26T18:28:18.130 ,2,0,0.,12.0,0.,12.0,0.,12.0,0.,12.0
1989-08-26T18:28:30.130 ,2,0,0.,12.0,0.,12.0,0.,12.0,0.,12.0
1989-08-26T18:28:42.130 ,2,0,0.,12.0,0.,12.0,0.,12.0,0.,12.0
1989-08-26T18:28:54.130 ,3,0,0.,12.0,0.,12.0,0.,12.0,0.,12.0
1989-08-26T18:29:06.130 ,3,0,0.,12.0,0.,12.0,0.,12.0,0.,12.0
1989-08-26T18:29:18.130 ,3,0,0.,12.0,0.,12.0,0.,12.0,0.,12.0
1989-08-26T18:29:30.130 ,3,0,0.,12.0,0.,12.0,0.,12.0,0.,12.0
1989-08-26T18:29:42.130 ,4,0,0.,12.0,0.,12.0,0.,12.0,0.,12.0
1989-08-26T18:29:54.130 ,4,0,0.,12.0,0.,12.0,0.,12.0,0.,12.0
1989-08-26T18:30:06.130 ,4,0,0.,12.0,0.,12.0,0.,12.0,0.,12.0
1989-08-26T18:30:18.130 ,4,0,0.,12.0,0.,12.0,0.,12.0,0.,12.0
1989-08-26T18:30:30.130 ,5,0,0.,12.0,0.,12.0,0.,12.0,0.,12.0
1989-08-26T18:30:42.130 ,5,0,0.,12.0,0.,12.0,0.,12.0,0.,12.0
1989-08-26T18:30:54.130 ,5,0,0.,12.0,0.,12.0,0.,12.0,0.,12.0
1989-08-26T18:31:06.130 ,5,0,0.,12.0,0.,12.0,0.,12.0,0.,12.0
1989-08-26T18:31:18.130 ,6,0,0.,12.0,0.,12.0,0.,12.0,0.,12.0
1989-08-26T18:31:30.130 ,6,0,0.,12.0,0.,12.0,0.,12.0,0.,12.0
1989-08-26T18:31:42.130 ,6,0,0.,12.0,0.,12.0,0.,12.0,0.,12.0
1989-08-26T18:31:54.130 ,6,0,0.,12.0,0.,12.0,0.,12.0,0.,12.0
1989-08-26T18:32:06.130 ,7,0,0.,12.0,0.,12.0,0.,12.0,0.,12.0
1989-08-26T18:32:18.130 ,7,0,0.,12.0,0.,12.0,0.,12.0,0.,12.0
1989-08-26T18:32:30.130 ,7,0,0.,12.0,0.,12.0,0.,12.0,0.,12.0
1989-08-26T18:32:42.130 ,7,0,0.,12.0,0.,12.0,0.,12.0,0.,12.0
1989-08-26T18:32:54.130 ,7,0,0.,12.0,0.,12.0,0.,12.0,0.,12.0
1989-08-26T18:33:06.130 ,7,0,0.,12.0,0.,12.0,0.,12.0,0.,12.0
1989-08-26T18:33:18.130 ,7,0,0.,12.0,0.,12.0,0.,12.0,0.,12.0
1989-08-26T18:33:30.130 ,7,0,0.,12.0,0.,12.0,0.,12.0,0.,12.0
1989-08-26T18:33:42.130 ,6,0,0.,12.0,0.,12.0,0.,12.0,0.,12.0
1989-08-26T18:33:54.130 ,6,0,0.,12.0,0.,12.0,0.,12.0,0.,12.0
1989-08-26T18:34:06.130 ,6,0,0.,12.0,0.,12.0,0.,12.0,0.,12.0
1989-08-26T18:34:18.130 ,6,0,0.,12.0,0.,12.0,0.,12.0,0.,12.0
1989-08-26T18:34:30.130 ,5,0,0.,12.0,0.,12.0,0.,12.0,0.,12.0
1989-08-26T18:34:42.130 ,5,0,0.,12.0,0.,12.0,0.,12.0,0.,12.0
1989-08-26T18:34:54.130 ,5,0,0.,12.0,0.,12.0,0.,12.0,0.,12.0
1989-08-26T18:35:06.130 ,5,0,0.,12.0,0.,12.0,0.,12.0,0.,12.0
1989-08-26T18:35:18.130 ,4,0,0.,12.0,0.,12.0,0.,12.0,0.,12.0
1989-08-26T18:35:30.130 ,4,0,0.,12.0,0.,12.0,0.,12.0,0.,12.0
1989-08-26T18:35:42.130 ,4,0,0.,12.0,0.,12.0,0.,12.0,0.,12.0
1989-08-26T18:35:54.130 ,4,0,0.,12.0,0.,12.0,0.,12.0,0.,12.0
1989-08-26T18:36:06.130 ,3,0,0.,12.0,0.,12.0,0.,12.0,0.,12.0
1989-08-26T18:36:18.130 ,3,0,0.,12.0,0.,12.0,0.,12.0,0.,12.0
1989-08-26T18:36:30.130 ,3,0,0.,12.0,0.,12.0,0.,12.0,0.,12.0
1989-08-26T18:36:42.130 ,3,0,0.,12.0,0.,12.0,0.,12.0,0.,12.0
1989-08-26T18:36:54.130 ,2,0,0.,12.0,0.,12.0,0.,12.0,0.,12.0
1989-08-26T18:37:06.130 ,2,0,0.,12.0,0.,12.0,0.,12.0,0.,12.0
1989-08-26T18:37:18.130 ,2,0,0.,12.0,0.,12.0,0.,12.0,0.,12.0
1989-08-26T18:37:30.130 ,2,0,0.,12.0,0.,12.0,0.,12.0,0.,12.0
1989-08-26T18:37:42.130 ,1,0,0.,12.0,0.,12.0,0.,12.0,0.,12.0
1989-08-26T18:37:54.130 ,1,0,0.,12.0,0.,12.0,0.,12.0,0.,12.0
1989-08-26T18:38:06.130 ,1,0,0.,12.0,0.,12.0,0.,12.0,0.,12.0
1989-08-26T18:38:18.130 ,1,0,0.,12.0,0.,12.0,0.,12.0,0.,12.0
1989-08-26T18:38:30.130 ,0,0,0.,12.0,0.,12.0,0.,12.0,0.,12.0
1989-08-26T18:38:42.130 ,0,0,0.,12.0,0.,12.0,0.,12.0,0.,12.0
1989-08-26T18:38:54.130 ,0,0,0.,12.0,0.,12.0,0.,12.0,0.,12.0
1989-08-26T18:39:06.130 ,0,0,0.,12.0,0.,12.0,0.,12.0,0.,12.0
1989-08-26T18:39:18.130 ,0,0,0.,12.0,0.,12.0,0.,12.0,0.,12.0
1989-08-26T18:39:30.130 ,0,0,0.,12.0,0.,12.0,0.,12.0,0.,12.0
1989-08-26T18:39:42.130 ,0,0,0.,12.0,0.,12.0,0.,12.0,0.,12.0
1989-08-26T18:39:54.130 ,0,0,0.,12.0,0.,12.0,0.,12.0,0.,12.0
1989-08-26T18:40:06.130 ,1,0,0.,12.0,0.,12.0,0.,12.0,0.,12.0
1989-08-26T18:40:18.130 ,1,0,0.,12.0,0.,12.0,0.,12.0,0.,12.0
1989-08-26T18:40:30.130 ,1,0,0.,12.0,0.,12.0,0.,12.0,0.,12.0
1989-08-26T18:40:42.130 ,1,0,0.,12.0,0.,12.0,0.,12.0,0.,12.0
1989-08-26T18:40:54.130 ,2,0,0.,12.0,0.,12.0,0.,12.0,0.,12.0
1989-08-26T18:41:06.130 ,2,0,0.,12.0,0.,12.0,0.,12.0,0.,12.0
1989-08-26T18:41:18.130 ,2,0,0.,12.0,0.,12.0,0.,12.0,0.,12.0
1989-08-26T18:41:30.130 ,2,0,0.,12.0,0.,12.0,0.,12.0,0.,12.0
1989-08-26T18:41:42.130 ,3,0,0.,12.0,0.,12.0,0.,12.0,0.,12.0
1989-08-26T18:41:54.130 ,3,0,0.,12.0,0.,12.0,0.,12.0,0.,12.0
1989-08-26T18:42:06.130 ,3,0,0.,12.0,0.,12.0,0.,12.0,0.,12.0
1989-08-26T18:42:18.130 ,3,0,0.,12.0,0.,12.0,0.,12.0,0.,12.0
1989-08-26T18:42:30.130 ,4,0,0.,12.0,0.,12.0,0.,12.0,0.,12.0
1989-08-26T18:42:42.130 ,4,0,0.,12.0,0.,12.0,0.,12.0,0.,12.0
1989-08-26T18:42:54.130 ,4,0,0.,12.0,0.,12.0,0.,12.0,0.,12.0
1989-08-26T18:43:06.130 ,4,0,0.,12.0,0.,12.0,0.,12.0,0.,12.0
1989-08-26T18:43:18.130 ,5,0,0.,12.0,0.,12.0,0.,12.0,0.,12.0
1989-08-26T18:43:30.130 ,5,0,0.,12.0,0.,12.0,0.,12.0,0.,12.0
1989-08-26T18:43:42.130 ,5,0,0.,12.0,0.,12.0,0.,12.0,0.,12.0
1989-08-26T18:43:54.130 ,5,0,0.,12.0,0.,12.0,0.,12.0,0.,12.0
1989-08-26T18:44:06.130 ,6,0,0.,12.0,0.,12.0,0.,12.0,0.,12.0
1989-08-26T18:44:18.130 ,6,0,0.,12.0,0.,12.0,0.,12.0,0.,12.0
1989-08-26T18:44:30.130 ,6,0,0.,12.0,0.,12.0,0.,12.0,0.,12.0
1989-08-26T18:44:42.130 ,6,0,0.,12.0,0.,12.0,0.,12.0,0.,12.0
1989-08-26T18:44:54.130 ,7,0,0.,12.0,0.,12.0,0.,12.0,0.,12.0
1989-08-26T18:45:06.130 ,7,0,0.,12.0,0.,12.0,0.,12.0,0.,12.0
1989-08-26T18:45:18.130 ,7,0,0.,12.0,0.,12.0,0.,12.0,0.,12.0
1989-08-26T18:45:30.130 ,7,0,0.,12.0,0.,12.0,0.,12.0,0.,12.0
1989-08-26T18:45:42.130 ,7,0,0.,12.0,0.,12.0,0.,12.0,0.,12.0
1989-08-26T18:45:54.130 ,7,0,0.,12.0,0.,12.0,0.,12.0,0.,12.0
1989-08-26T18:46:06.130 ,7,0,0.,12.0,0.,12.0,0.,12.0,0.,12.0
1989-08-26T18:46:18.130 ,7,0,0.,12.0,0.,12.0,0.,12.0,0.,12.0
1989-08-26T18:46:30.130 ,6,0,0.,12.0,0.,12.0,0.,12.0,0.,12.0
1989-08-26T18:46:42.130 ,6,0,0.,12.0,0.,12.0,0.,12.0,0.,12.0
1989-08-26T18:46:54.130 ,6,0,0.,12.0,0.,12.0,0.,12.0,0.,12.0
1989-08-26T18:47:06.130 ,6,0,0.,12.0,0.,12.0,0.,12.0,0.,12.0
1989-08-26T18:47:18.130 ,5,0,0.,12.0,0.,12.0,0.,12.0,0.,12.0
1989-08-26T18:47:30.130 ,5,0,0.,12.0,0.,12.0,0.,12.0,0.,12.0
1989-08-26T18:47:42.130 ,5,0,0.,12.0,0.,12.0,0.,12.0,0.,12.0
1989-08-26T18:47:54.130 ,5,0,0.,12.0,0.,12.0,0.,12.0,0.,12.0
1989-08-26T18:48:06.130 ,4,0,0.,12.0,0.,12.0,0.,12.0,0.,12.0
1989-08-26T18:48:18.130 ,4,0,0.,12.0,0.,12.0,0.,12.0,0.,12.0
1989-08-26T18:48:30.130 ,4,0,0.,12.0,0.,12.0,0.,12.0,0.,12.0
1989-08-26T18:48:42.130 ,4,0,0.,12.0,0.,12.0,0.,12.0,0.,12.0
1989-08-26T18:48:54.130 ,3,0,0.,12.0,0.,12.0,0.,12.0,0.,12.0
1989-08-26T18:49:06.130 ,3,0,0.,12.0,0.,12.0,0.,12.0,0.,12.0
1989-08-26T18:49:18.130 ,3,0,0.,12.0,0.,12.0,0.,12.0,0.,12.0
1989-08-26T18:49:30.130 ,3,0,0.,12.0,0.,12.0,0.,12.0,0.,12.0
1989-08-26T18:49:42.130 ,2,0,0.,12.0,0.,12.0,0.,12.0,0.,12.0
1989-08-26T18:49:54.130 ,2,0,0.,12.0,0.,12.0,0.,12.0,0.,12.0
1989-08-26T18:50:06.130 ,2,0,0.,12.0,0.,12.0,0.,12.0,0.,12.0
1989-08-26T18:50:18.130 ,2,0,0.,12.0,0.,12.0,0.,12.0,0.,12.0
1989-08-26T18:50:30.130 ,1,0,0.,12.0,0.,12.0,0.,12.0,0.,12.0
1989-08-26T18:50:42.130 ,1,0,0.,12.0,0.,12.0,0.,12.0,0.,12.0
1989-08-26T18:50:54.130 ,1,0,0.,12.0,0.,12.0,0.,12.0,0.,12.0
1989-08-26T18:51:06.130 ,1,0,0.,12.0,0.,12.0,0.,12.0,0.,12.0
1989-08-26T18:51:18.130 ,0,0,0.,12.0,0.,12.0,0.,12.0,0.,12.0
1989-08-26T18:51:30.130 ,0,0,0.,12.0,0.,12.0,0.,12.0,0.,12.0
1989-08-26T18:51:42.130 ,0,0,0.,12.0,0.,12.0,0.,12.0,0.,12.0
1989-08-26T18:51:54.130 ,0,0,0.,12.0,0.,12.0,0.,12.0,0.,12.0
1989-08-26T18:52:06.130 ,0,0,0.,12.0,0.,12.0,0.,12.0,0.,12.0
1989-08-26T18:52:18.130 ,0,0,0.,12.0,0.,12.0,0.,12.0,0.,12.0
1989-08-26T18:52:30.130 ,0,0,0.,12.0,0.,12.0,0.,12.0,0.,12.0
1989-08-26T18:52:42.130 ,0,0,0.,12.0,0.,12.0,0.,12.0,0.,12.0
1989-08-26T18:52:54.130 ,1,0,0.,12.0,0.,12.0,0.,12.0,0.,12.0
1989-08-26T18:53:06.130 ,1,0,0.,12.0,0.,12.0,0.,12.0,0.,12.0
1989-08-26T18:53:18.130 ,1,0,0.,12.0,0.,12.0,0.,12.0,0.,12.0
1989-08-26T18:53:30.130 ,1,0,0.,12.0,0.,12.0,0.,12.0,0.,12.0
1989-08-26T18:53:42.130 ,2,0,0.,12.0,0.,12.0,0.,12.0,0.,12.0
1989-08-26T18:53:54.130 ,2,0,0.,12.0,0.,12.0,0.,12.0,0.,12.0
1989-08-26T18:54:06.130 ,2,0,0.,12.0,0.,12.0,0.,12.0,0.,12.0
1989-08-26T18:54:18.130 ,2,0,0.,12.0,0.,12.0,0.,12.0,0.,12.0
1989-08-26T18:54:30.130 ,3,0,0.,12.0,0.,12.0,0.,12.0,0.,12.0
1989-08-26T18:54:42.130 ,3,0,0.,12.0,0.,12.0,0.,12.0,0.,12.0
1989-08-26T18:54:54.130 ,3,0,0.,12.0,0.,12.0,0.,12.0,0.,12.0
1989-08-26T18:55:06.130 ,3,0,0.,12.0,0.,12.0,0.,12.0,0.,12.0
1989-08-26T18:55:18.130 ,4,0,0.,12.0,0.,12.0,0.,12.0,0.,12.0
1989-08-26T18:55:30.130 ,4,0,0.,12.0,0.,12.0,0.,12.0,0.,12.0
1989-08-26T18:55:42.130 ,4,0,0.,12.0,0.,12.0,0.,12.0,0.,12.0
1989-08-26T18:55:54.130 ,4,0,0.,12.0,0.,12.0,0.,12.0,0.,12.0
1989-08-26T18:56:06.130 ,5,0,1.,12.0,0.,12.0,0.,12.0,0.,12.0
1989-08-26T18:56:18.130 ,5,0,0.,12.0,0.,12.0,0.,12.0,0.,12.0
1989-08-26T18:56:30.130 ,5,0,0.,12.0,0.,12.0,0.,12.0,0.,12.0
1989-08-26T18:56:42.130 ,5,0,0.,12.0,0.,12.0,0.,12.0,0.,12.0
1989-08-26T18:56:54.130 ,6,0,0.,12.0,0.,12.0,0.,12.0,0.,12.0
1989-08-26T18:57:06.130 ,6,0,0.,12.0,0.,12.0,0.,12.0,0.,12.0
1989-08-26T18:57:18.130 ,6,0,0.,12.0,0.,12.0,0.,12.0,0.,12.0
1989-08-26T18:57:30.130 ,6,0,0.,12.0,0.,12.0,0.,12.0,0.,12.0
1989-08-26T18:57:42.130 ,7,0,0.,12.0,0.,12.0,0.,12.0,0.,12.0
1989-08-26T18:57:54.130 ,7,0,0.,12.0,0.,12.0,0.,12.0,0.,12.0
1989-08-26T18:58:06.130 ,7,0,0.,12.0,0.,12.0,0.,12.0,0.,12.0
1989-08-26T18:58:18.130 ,7,0,0.,12.0,0.,12.0,0.,12.0,0.,12.0
1989-08-26T18:58:30.130 ,7,0,0.,12.0,0.,12.0,0.,12.0,0.,12.0
1989-08-26T18:58:42.130 ,7,0,0.,12.0,0.,12.0,0.,12.0,0.,12.0
1989-08-26T18:58:54.130 ,7,0,0.,12.0,0.,12.0,0.,12.0,0.,12.0
1989-08-26T18:59:06.130 ,7,0,0.,12.0,0.,12.0,0.,12.0,0.,12.0
1989-08-26T18:59:18.130 ,6,0,0.,12.0,0.,12.0,0.,12.0,0.,12.0
1989-08-26T18:59:30.130 ,6,0,0.,12.0,0.,12.0,0.,12.0,0.,12.0
1989-08-26T18:59:42.130 ,6,0,0.,12.0,0.,12.0,0.,12.0,0.,12.0
1989-08-26T18:59:54.130 ,6,0,0.,12.0,0.,12.0,0.,12.0,0.,12.0
1989-08-26T19:00:06.130 ,5,0,0.,12.0,0.,12.0,0.,12.0,0.,12.0
1989-08-26T19:00:18.130 ,5,0,0.,12.0,0.,12.0,0.,12.0,0.,12.0
1989-08-26T19:00:30.130 ,5,0,0.,12.0,0.,12.0,0.,12.0,0.,12.0
1989-08-26T19:00:42.130 ,5,0,0.,12.0,0.,12.0,0.,12.0,0.,12.0
1989-08-26T19:00:54.130 ,4,0,0.,12.0,0.,12.0,0.,12.0,0.,12.0
1989-08-26T19:01:06.130 ,4,0,0.,12.0,0.,12.0,0.,12.0,0.,12.0
1989-08-26T19:01:18.130 ,4,0,0.,12.0,0.,12.0,0.,12.0,0.,12.0
1989-08-26T19:01:30.130 ,4,0,0.,12.0,0.,12.0,0.,12.0,0.,12.0
1989-08-26T19:01:42.130 ,3,0,0.,12.0,0.,12.0,0.,12.0,0.,12.0
1989-08-26T19:01:54.130 ,3,0,0.,12.0,0.,12.0,0.,12.0,0.,12.0
1989-08-26T19:02:06.130 ,3,0,0.,12.0,0.,12.0,0.,12.0,0.,12.0
1989-08-26T19:02:18.130 ,3,0,0.,12.0,0.,12.0,0.,12.0,0.,12.0
1989-08-26T19:02:30.130 ,2,0,0.,12.0,0.,12.0,0.,12.0,0.,12.0
1989-08-26T19:02:42.130 ,2,0,0.,12.0,0.,12.0,0.,12.0,0.,12.0
1989-08-26T19:02:54.130 ,2,0,0.,12.0,0.,12.0,0.,12.0,0.,12.0
1989-08-26T19:03:06.130 ,2,0,0.,12.0,0.,12.0,0.,12.0,0.,12.0
1989-08-26T19:03:18.130 ,1,0,0.,12.0,0.,12.0,0.,12.0,0.,12.0
1989-08-26T19:03:30.130 ,1,0,0.,12.0,0.,12.0,0.,12.0,0.,12.0
1989-08-26T19:03:42.130 ,1,0,0.,12.0,0.,12.0,0.,12.0,0.,12.0
1989-08-26T19:03:54.130 ,1,0,0.,12.0,0.,12.0,0.,12.0,0.,12.0
1989-08-26T19:04:06.130 ,0,0,0.,12.0,0.,12.0,0.,12.0,0.,12.0
1989-08-26T19:04:18.130 ,0,0,0.,12.0,0.,12.0,0.,12.0,0.,12.0
1989-08-26T19:04:30.130 ,0,0,0.,12.0,0.,12.0,0.,12.0,0.,12.0
1989-08-26T19:04:42.130 ,0,0,0.,12.0,0.,12.0,0.,12.0,0.,12.0
1989-08-26T19:04:54.130 ,0,0,0.,12.0,0.,12.0,0.,12.0,0.,12.0
1989-08-26T19:05:06.130 ,0,0,0.,12.0,0.,12.0,0.,12.0,0.,12.0
1989-08-26T19:05:18.130 ,0,0,0.,12.0,0.,12.0,0.,12.0,0.,12.0
1989-08-26T19:05:30.130 ,0,0,0.,12.0,0.,12.0,0.,12.0,0.,12.0
1989-08-26T19:05:42.130 ,1,0,0.,12.0,0.,12.0,0.,12.0,0.,12.0
1989-08-26T19:05:54.130 ,1,0,0.,12.0,0.,12.0,0.,12.0,0.,12.0
1989-08-26T19:06:06.130 ,1,0,0.,12.0,0.,12.0,0.,12.0,0.,12.0
1989-08-26T19:06:18.130 ,1,0,0.,12.0,0.,12.0,0.,12.0,0.,12.0
1989-08-26T19:06:30.130 ,2,0,0.,12.0,0.,12.0,0.,12.0,0.,12.0
1989-08-26T19:06:42.130 ,2,0,0.,12.0,0.,12.0,0.,12.0,0.,12.0
1989-08-26T19:06:54.130 ,2,0,0.,12.0,0.,12.0,0.,12.0,0.,12.0
1989-08-26T19:07:06.130 ,2,0,0.,12.0,0.,12.0,0.,12.0,0.,12.0
1989-08-26T19:07:18.130 ,3,0,0.,12.0,0.,12.0,0.,12.0,0.,12.0
1989-08-26T19:07:30.130 ,3,0,0.,12.0,0.,12.0,0.,12.0,0.,12.0
1989-08-26T19:07:42.130 ,3,0,0.,12.0,0.,12.0,0.,12.0,0.,12.0
1989-08-26T19:07:54.130 ,3,0,0.,12.0,0.,12.0,0.,12.0,0.,12.0
1989-08-26T19:08:06.130 ,4,0,0.,12.0,0.,12.0,0.,12.0,0.,12.0
1989-08-26T19:08:18.130 ,4,0,0.,12.0,0.,12.0,0.,12.0,0.,12.0
1989-08-26T19:08:30.130 ,4,0,0.,12.0,0.,12.0,0.,12.0,0.,12.0
1989-08-26T19:08:42.130 ,4,0,0.,12.0,0.,12.0,0.,12.0,0.,12.0
1989-08-26T19:08:54.130 ,5,0,0.,12.0,0.,12.0,0.,12.0,0.,12.0
1989-08-26T19:09:06.130 ,5,0,0.,12.0,0.,12.0,0.,12.0,0.,12.0
1989-08-26T19:09:18.130 ,5,0,0.,12.0,0.,12.0,0.,12.0,0.,12.0
1989-08-26T19:09:30.130 ,5,0,0.,12.0,0.,12.0,0.,12.0,0.,12.0
1989-08-26T19:09:42.130 ,6,0,0.,12.0,0.,12.0,0.,12.0,0.,12.0
1989-08-26T19:09:54.130 ,6,0,0.,12.0,0.,12.0,0.,12.0,0.,12.0
1989-08-26T19:10:06.130 ,6,0,0.,12.0,0.,12.0,0.,12.0,0.,12.0
1989-08-26T19:10:18.130 ,6,0,0.,12.0,0.,12.0,0.,12.0,0.,12.0
1989-08-26T19:10:30.130 ,7,0,0.,12.0,0.,12.0,0.,12.0,0.,12.0
1989-08-26T19:10:42.130 ,7,0,0.,12.0,0.,12.0,0.,12.0,0.,12.0
1989-08-26T19:10:54.130 ,7,0,0.,12.0,0.,12.0,0.,12.0,0.,12.0
1989-08-26T19:11:06.130 ,7,0,0.,12.0,0.,12.0,0.,12.0,0.,12.0
1989-08-26T19:11:18.130 ,7,0,0.,12.0,0.,12.0,0.,12.0,0.,12.0
1989-08-26T19:11:30.130 ,7,0,0.,12.0,0.,12.0,0.,12.0,0.,12.0
1989-08-26T19:11:42.130 ,7,0,0.,12.0,0.,12.0,0.,12.0,0.,12.0
1989-08-26T19:11:54.130 ,7,0,0.,12.0,0.,12.0,0.,12.0,0.,12.0
1989-08-26T19:12:06.130 ,6,0,0.,12.0,0.,12.0,0.,12.0,0.,12.0
1989-08-26T19:12:18.130 ,6,0,0.,12.0,0.,12.0,0.,12.0,0.,12.0
1989-08-26T19:12:30.130 ,6,0,0.,12.0,0.,12.0,0.,12.0,0.,12.0
1989-08-26T19:12:42.130 ,6,0,0.,12.0,0.,12.0,0.,12.0,0.,12.0
1989-08-26T19:12:54.130 ,5,0,0.,12.0,0.,12.0,0.,12.0,0.,12.0
1989-08-26T19:13:06.130 ,5,0,0.,12.0,0.,12.0,0.,12.0,0.,12.0
1989-08-26T19:13:18.130 ,5,0,0.,12.0,0.,12.0,0.,12.0,0.,12.0
1989-08-26T19:13:30.130 ,5,0,0.,12.0,0.,12.0,0.,12.0,0.,12.0
1989-08-26T19:13:42.130 ,4,0,0.,12.0,0.,12.0,0.,12.0,0.,12.0
1989-08-26T19:13:54.130 ,4,0,0.,12.0,0.,12.0,0.,12.0,0.,12.0
1989-08-26T19:14:06.130 ,4,0,0.,12.0,0.,12.0,0.,12.0,0.,12.0
1989-08-26T19:14:18.130 ,4,0,0.,12.0,0.,12.0,0.,12.0,0.,12.0
1989-08-26T19:14:30.130 ,3,0,0.,12.0,0.,12.0,0.,12.0,0.,12.0
1989-08-26T19:14:42.130 ,3,0,0.,12.0,0.,12.0,0.,12.0,0.,12.0
1989-08-26T19:14:54.130 ,3,0,0.,12.0,0.,12.0,0.,12.0,0.,12.0
1989-08-26T19:15:06.130 ,3,0,0.,12.0,0.,12.0,0.,12.0,0.,12.0
1989-08-26T19:15:18.130 ,2,0,0.,12.0,0.,12.0,0.,12.0,0.,12.0
1989-08-26T19:15:30.130 ,2,0,0.,12.0,0.,12.0,0.,12.0,0.,12.0
1989-08-26T19:15:42.130 ,2,0,0.,12.0,0.,12.0,0.,12.0,0.,12.0
1989-08-26T19:15:54.130 ,2,0,0.,12.0,0.,12.0,0.,12.0,0.,12.0
1989-08-26T19:16:06.130 ,1,0,0.,12.0,0.,12.0,0.,12.0,0.,12.0
1989-08-26T19:16:18.130 ,1,0,0.,12.0,0.,12.0,0.,12.0,0.,12.0
1989-08-26T19:16:30.130 ,1,0,0.,12.0,0.,12.0,0.,12.0,0.,12.0
1989-08-26T19:16:42.130 ,1,0,0.,12.0,0.,12.0,0.,12.0,0.,12.0
1989-08-26T19:16:54.130 ,0,0,0.,12.0,0.,12.0,0.,12.0,0.,12.0
1989-08-26T19:17:06.130 ,0,0,0.,12.0,0.,12.0,0.,12.0,0.,12.0
1989-08-26T19:17:18.130 ,0,0,0.,12.0,0.,12.0,0.,12.0,0.,12.0
1989-08-26T19:17:30.130 ,0,0,0.,12.0,0.,12.0,0.,12.0,0.,12.0
1989-08-26T19:17:42.130 ,0,0,0.,12.0,0.,12.0,0.,12.0,0.,12.0
1989-08-26T19:17:54.130 ,0,0,0.,12.0,0.,12.0,0.,12.0,0.,12.0